Location: Winthrop
(48.4780°N, 120.1850°W)
Time: 12:14:29
(UTC-07:00)

Vanguard 3 - Pass Details

Date: 12 February 2023
Orbit: 508 x 3249 km, 33.4° (Epoch: 28 March)

Event Time Altitude Azimuth Distance (km) Brightness Sun altitude
Rises 19:14:07 0° 251° (WSW) 3,731 11.8 -19.8°
Reaches altitude 10° 19:16:42 10° 240° (WSW) 3,078 10.9 -20.2°
Maximum altitude 19:23:17 29° 183° (S) 2,630 9.7 -21.3°
Enters shadow 19:30:53 16° 137° (SE) 4,186 10.3 -22.6°
